Weather History for Spokane Felts, WA

Change the Weather History Date:

Friday, February 8, 2013

  Actual Average Record
Temperature  
Mean Temperature 36 °F 33 °F  
Max Temperature 40 °F 40 °F 50 °F (1998)
Min Temperature 31 °F 27 °F 12 °F (2001)
Degree Days  
Heating Degree Days 29 32  
Month to date heating degree days 230 256  
Since 1 July heating degree days 3531 3968  
Cooling Degree Days 0 0  
Month to date cooling degree days 0 0  
Year to date cooling degree days 0 0  
Moisture  
Dew Point 30 °F    
Average Humidity 80    
Maximum Humidity 89    
Minimum Humidity 70    
Precipitation  
Precipitation 0.03 in 0.05 in 0.13 in (1999)
Month to date precipitation 0.08 0.49  
Year to date precipitation 1.71 2.44  
Sea Level Pressure  
Sea Level Pressure 30.09 in    
Wind  
Wind Speed 1 mph (SW)    
Max Wind Speed 9 mph    
Max Gust Speed 12 mph    
Visibility 6 miles    
Events Rain , Snow    
T = Trace of Precipitation, MM = Missing Value Source: NWS Daily Summary

Daily Weather History Graph

Daily Weather History Graph

Search for Another Location

Airport:

Trip Planner

Search our weather history database for the weather conditions in past years. The results will help you decide how hot, cold, wet, or windy it might be!

Date:

Astronomy

Feb. 08, 2013 Rise Set
Actual Time 7:05 AM PST 5:01 PM PST
Civil Twilight 6:33 AM PST 5:34 PM PST
Nautical Twilight 5:56 AM PST 6:10 PM PST
Astronomical Twilight 5:21 AM PST 6:46 PM PST
Moon 5:41 AM PST (2/8) 3:38 PM PST (2/8)
Length of Visible Light 11h 01m
Length of Day
9h 56m
Waning Crescent, 3% of the Moon is Illuminated
Feb 8
Waning Crescent
Feb 9
New
Feb 17
First Quarter
Feb 25
Full
Mar 4
Last Quarter

Hourly Weather History & Observations

Time (PST) Temp. Windchill Dew Point Humidity Pressure Visibility Wind Dir Wind Speed Gust Speed Precip Events Conditions
12:14 AM 35.6 °F - 32.0 °F 87% 30.03 in 4.0 mi Calm Calm - 0.00 in Rain Light Rain
12:22 AM 35.6 °F - 32.0 °F 87% 30.03 in 4.0 mi Calm Calm - 0.01 in Rain Light Rain
12:34 AM 35.6 °F - 32.0 °F 87% 30.02 in 2.5 mi Calm Calm - 0.02 in Snow Light Snow
12:53 AM 34.0 °F - 30.9 °F 89% 30.06 in 3.0 mi Calm Calm - 0.02 in   Overcast
12:56 AM 33.8 °F - 30.2 °F 87% 30.03 in 2.5 mi Calm Calm - 0.00 in   Overcast
1:06 AM 33.8 °F - 30.2 °F 87% 30.03 in 2.5 mi Calm Calm - 0.00 in   Overcast
1:12 AM 33.8 °F - 30.2 °F 87% 30.03 in 3.0 mi Calm Calm - 0.00 in   Overcast
1:21 AM 33.8 °F - 30.2 °F 87% 30.03 in 3.0 mi Calm Calm - 0.00 in   Overcast
1:46 AM 33.8 °F - 30.2 °F 87% 30.04 in 2.0 mi Calm Calm - 0.00 in   Overcast
1:53 AM 34.0 °F - 30.9 °F 89% 30.07 in 2.5 mi Calm Calm - 0.00 in   Overcast
2:07 AM 33.8 °F - 30.2 °F 87% 30.04 in 2.5 mi Calm Calm - N/A   Overcast
2:14 AM 33.8 °F - 30.2 °F 87% 30.05 in 3.0 mi Calm Calm - N/A   Overcast
2:21 AM 33.8 °F - 30.2 °F 87% 30.04 in 3.0 mi Calm Calm - N/A   Overcast
2:37 AM 33.8 °F - 32.0 °F 93% 30.05 in 2.0 mi Calm Calm - N/A   Overcast
2:53 AM 34.0 °F - 30.9 °F 89% 30.08 in 2.5 mi Calm Calm - N/A   Overcast
3:09 AM 33.8 °F - 30.2 °F 87% 30.04 in 3.0 mi Calm Calm - N/A   Overcast
3:18 AM 33.8 °F - 30.2 °F 87% 30.05 in 2.5 mi Calm Calm - N/A   Overcast
3:28 AM 33.8 °F - 32.0 °F 93% 30.05 in 2.5 mi Calm Calm - 0.00 in   Overcast
3:37 AM 33.8 °F - 32.0 °F 93% 30.05 in 2.5 mi Calm Calm - 0.00 in   Overcast
3:53 AM 35.6 °F - 30.2 °F 81% 30.06 in 4.0 mi Calm Calm - N/A   Overcast
4:09 AM 35.6 °F - 32.0 °F 87% 30.06 in 5.0 mi Calm Calm - 0.00 in   Overcast
4:53 AM 35.1 °F 32.2 °F 30.9 °F 85% 30.10 in 7.0 mi WSW 3.5 mph - 0.00 in   Overcast
5:10 AM 35.6 °F - 30.2 °F 81% 30.07 in 6.0 mi Calm Calm - N/A   Overcast
5:18 AM 35.6 °F - 30.2 °F 81% 30.07 in 7.0 mi Calm Calm - N/A   Overcast
5:53 AM 35.1 °F - 32.0 °F 89% 30.11 in 6.0 mi Calm Calm - N/A   Overcast
6:53 AM 35.1 °F 32.2 °F 30.0 °F 82% 30.12 in 6.0 mi SW 3.5 mph - N/A   Haze
7:53 AM 35.1 °F - 30.9 °F 85% 30.13 in 6.0 mi Calm Calm - N/A   Overcast
8:53 AM 35.1 °F 32.2 °F 30.0 °F 82% 30.15 in 9.0 mi WSW 3.5 mph - N/A   Overcast
9:53 AM 35.1 °F - 30.9 °F 85% 30.15 in 7.0 mi Calm Calm - N/A   Overcast
10:53 AM 36.0 °F - 30.9 °F 82% 30.16 in 6.0 mi Calm Calm - N/A   Haze
11:53 AM 37.0 °F - 32.0 °F 82% 30.14 in 7.0 mi Calm Calm - N/A   Overcast
12:38 PM 37.4 °F - 32.0 °F 81% 30.09 in 8.0 mi Calm Calm - N/A   Overcast
12:53 PM 37.9 °F - 32.0 °F 79% 30.13 in 9.0 mi Calm Calm - N/A   Overcast
1:35 PM 37.4 °F - 30.2 °F 75% 30.09 in 10.0 mi Calm Calm - N/A   Overcast
1:50 PM 39.2 °F - 30.2 °F 70% 30.08 in 10.0 mi Calm Calm - N/A   Overcast
1:53 PM 39.0 °F - 30.0 °F 70% 30.12 in 10.0 mi Calm Calm - N/A   Overcast
2:53 PM 39.9 °F - 30.0 °F 68% 30.12 in 10.0 mi Calm Calm - N/A   Mostly Cloudy
3:53 PM 39.9 °F 34.5 °F 30.9 °F 70% 30.11 in 10.0 mi South 8.1 mph - N/A   Mostly Cloudy
4:27 PM 37.4 °F 31.4 °F 30.2 °F 75% 30.07 in 10.0 mi SSW 8.1 mph - N/A   Scattered Clouds
4:53 PM 37.0 °F 31.6 °F 28.9 °F 73% 30.12 in 10.0 mi SW 6.9 mph - N/A   Scattered Clouds
5:53 PM 36.0 °F - 30.0 °F 79% 30.12 in 10.0 mi Calm Calm - N/A   Scattered Clouds
6:53 PM 32.0 °F - 28.9 °F 88% 30.13 in 9.0 mi Calm Calm - N/A   Scattered Clouds
7:00 PM 33.8 °F - 28.4 °F 81% 30.08 in 9.0 mi Calm Calm - N/A   Mostly Cloudy
7:10 PM 33.8 °F - 28.4 °F 81% 30.08 in 9.0 mi Calm Calm - N/A   Overcast
7:53 PM 33.1 °F - 28.9 °F 85% 30.13 in 8.0 mi Calm Calm - N/A   Overcast
8:53 PM 32.0 °F - 28.0 °F 85% 30.14 in 5.0 mi Calm Calm - N/A   Overcast
9:53 PM 33.1 °F - 28.9 °F 85% 30.13 in 8.0 mi Calm Calm - N/A   Overcast
10:53 PM 32.0 °F - 28.0 °F 85% 30.14 in 7.0 mi Calm Calm - N/A   Scattered Clouds
11:03 PM 30.2 °F - 28.4 °F 93% 30.09 in 9.0 mi Calm Calm - N/A   Mostly Cloudy
11:53 PM 30.9 °F - 28.0 °F 89% 30.14 in 9.0 mi Calm Calm - N/A   Overcast